Temp
24 24 24 24 24 25 24 23 24 23 23 23 22 22 23 23 24 23 23 24 24 24 24 24 24 23 24 24 24 23 23 22 23 23 23 23 24 25 26 27 28 29
24 24 25 25 24 25 24 24 23 23 22 22 22 22 23 23 23 23 23 23 23 23 23 23 23 23 23 22 22 21 21 21 21 23 22 22 23 24 25 26 28 30
23 23 23 23 23 23 23 23 23 23 22 22 23 23 22 23 23 23 23 23 22 23 23 23 23 23 22 22 22 21 21 20 20 22 22 22 24 24 24 25 26 27
23 23 23 23 23 22 23 22 22 22 22 21 21 22 22 22 23 22 22 23 22 22 22 22 22 22 22 22 21 21 21 21 21 21 21 22 22 23 23 24 26 27
23 23 23 23 22 23 22 21 21 21 21 21 21 22 22 21 21 21 21 22 22 22 22 23 23 23 22 21 21 20 20 20 21 21 20 20 22 22 23 25 25 27
23 23 22 22 22 21 21 20 20 20 20 20 20 21 21 21 21 21 21 21 21 21 21 22 22 21 21 20 20 19 19 19 20 20 20 20 21 22 23 24 25 25
21 21 21 21 21 21 20 20 20 21 20 20 20 20 20 20 20 20 20 20 20 20 20 20 20 19 19 19 19 19 19 19 19 20 20 20 21 22 24 25 25 25
21 21 21 20 20 20 19 19 19 19 20 19 19 20 20 19 19 20 20 20 19 19 19 18 18 18 18 19 18 18 19 20 20 20 20 20 21 20 22 23 25 25
20 20 20 19 19 19 18 18 18 19 19 18 18 19 19 19 19 19 18 18 18 18 17 17 17 18 18 18 18 18 18 19 20 20 20 20 20 20 20 22 23 26
19 19 19 18 18 18 17 18 18 18 18 18 18 18 17 18 18 18 17 17 16 16 17 16 16 17 17 17 17 17 17 18 18 19 20 21 21 21 21 22 23 25
18 18 17 17 17 17 16 17 17 17 18 17 16 16 16 16 16 17 16 16 15 15 15 15 15 16 16 16 17 18 18 18 18 18 18 19 20 21 23 24 25 25
17 17 16 16 16 16 16 16 16 16 16 15 15 14 14 15 15 15 15 15 15 15 15 15 15 15 15 16 16 17 17 18 18 19 18 18 19 20 22 23 23 23
16 16 16 15 15 15 15 15 15 14 13 13 13 13 13 13 13 13 14 14 14 14 14 14 15 15 15 16 16 17 17 18 18 18 18 19 19 20 21 21 22 23
15 15 15 15 15 14 14 13 13 12 11 11 11 11 11 11 11 12 12 13 14 14 14 14 15 15 16 16 17 17 17 17 18 18 18 18 19 19 20 20 22 23
14 14 14 14 13 12 11 10 10 10 10 10 10 10 10 11 12 12 12 12 13 14 14 15 15 15 16 17 16 17 18 17 18 18 18 18 19 20 21 21 22 23
13 13 12 12 10 9 8 8 8 8 8 8 8 9 10 11 11 12 12 12 12 13 14 14 15 16 18 21 22 20 19 20 19 19 19 19 20 21 22 22 23 24
11 10 9 8 7 6 5 5 6 6 6 6 7 8 9 10 11 12 13 14 13 14 14 15 16 16 20 23 24 25 23 21 21 21 21 21 21 21 21 23 25 26
8 7 5 4 4 4 4 4 4 4 4 5 6 7 9 10 11 12 13 13 13 13 13 14 15 19 22 23 25 25 26 23 23 22 22 22 22 22 22 22 23 25
5 4 3 2 2 2 2 2 2 3 4 5 6 8 10 10 11 11 11 11 11 11 11 13 14 19 22 23 25 26 26 26 23 24 23 22 23 23 23 23 24 24
3 1 1 1 1 1 1 1 2 2 4 6 8 9 9 9 9 9 9 10 10 10 11 12 13 18 22 23 25 26 27 28 25 24 24 23 23 23 23 23 24 24
1 0 -1 -0 -0 0 0 0 1 3 4 6 7 8 7 7 7 7 7 8 9 9 10 11 13 19 22 24 25 26 28 28 26 25 24 24 24 24 24 24 25 25
-1 -2 -2 -2 -1 -1 -1 0 2 3 4 6 6 7 8 8 7 7 6 6 8 9 9 11 13 20 22 24 25 27 29 26 25 24 23 24 24 25 25 25 26 26
-1 -3 -3 -3 -2 -2 -2 -1 1 2 4 6 5 6 6 5 5 5 6 7 7 8 9 10 12 18 22 24 25 27 27 25 25 23 23 23 24 25 25 25 26 26
-3 -4 -4 -4 -4 -3 -2 0 2 3 4 5 4 4 4 4 5 5 6 7 8 9 11 11 14 18 22 24 25 27 27 24 24 23 22 22 23 24 25 25 26 28
-4 -4 -5 -5 -4 -3 -2 -1 1 2 3 4 4 4 3 4 5 5 6 8 9 10 15 15 14 17 21 24 26 26 25 24 24 23 22 22 22 23 25 25 26 27
-4 -6 -5 -5 -4 -3 -2 -0 2 2 2 2 3 3 3 4 5 6 6 8 10 12 12 14 14 16 19 24 25 25 26 24 24 23 22 22 22 22 22 24 25 26
MSLP
1020.04 1020.09 1020.04 1020.01 1019.92 1019.80 1019.57 1019.28 1018.89 1018.72 1018.33 1018.12 1017.89 1017.21 1016.89 1016.36 1016.12 1016.04 1015.65 1015.41 1015.16 1014.84 1014.48 1014.24 1013.92 1013.68 1013.36 1013.12 1012.92 1012.72 1012.36 1012.04 1011.68 1011.48 1011.33 1010.97 1010.33 1009.84 1009.21 1008.80 1008.65 1008.33
1019.92 1019.89 1019.80 1019.80 1019.68 1019.57 1019.33 1019.09 1018.68 1018.45 1018.04 1017.80 1017.57 1017.16 1016.60 1016.33 1015.80 1015.68 1015.24 1014.80 1014.45 1014.09 1013.80 1013.57 1013.24 1012.97 1012.72 1012.48 1012.28 1012.12 1011.68 1011.41 1010.97 1010.84 1010.57 1010.21 1009.65 1009.33 1008.53 1008.28 1008.01 1007.53
1019.72 1019.68 1019.72 1019.68 1019.53 1019.24 1019.01 1018.72 1018.53 1018.24 1017.92 1017.45 1017.21 1016.92 1016.48 1016.12 1015.65 1015.12 1014.84 1014.53 1014.01 1013.45 1013.12 1012.84 1012.53 1012.24 1012.04 1011.84 1011.68 1011.45 1011.04 1010.65 1010.28 1010.01 1009.80 1009.12 1008.84 1008.41 1007.89 1007.89 1007.60 1007.24
1019.53 1019.53 1019.53 1019.45 1019.33 1019.04 1018.72 1018.48 1018.21 1018.01 1017.68 1017.33 1016.97 1016.65 1016.41 1015.80 1015.41 1014.80 1014.36 1013.97 1013.60 1013.01 1012.53 1012.28 1011.92 1011.57 1011.41 1011.21 1011.12 1010.72 1010.33 1009.92 1009.53 1009.41 1008.92 1008.48 1008.21 1007.97 1007.45 1007.48 1007.01 1006.68
1019.33 1019.36 1019.36 1019.24 1019.04 1018.80 1018.57 1018.36 1018.01 1017.68 1017.45 1017.12 1016.77 1016.45 1016.01 1015.57 1015.12 1014.60 1014.04 1013.53 1013.16 1012.68 1012.04 1011.60 1011.41 1011.04 1010.92 1010.65 1010.53 1010.09 1009.65 1009.16 1008.80 1008.68 1008.21 1007.72 1007.36 1007.33 1006.72 1006.77 1006.16 1005.68
1019.16 1019.21 1019.12 1019.01 1018.80 1018.60 1018.41 1018.21 1017.89 1017.57 1017.21 1016.89 1016.57 1016.24 1015.80 1015.36 1014.92 1014.41 1013.84 1013.33 1012.68 1012.33 1011.89 1011.33 1011.04 1010.77 1010.60 1010.36 1009.97 1009.45 1008.97 1008.60 1008.12 1008.01 1007.48 1007.01 1006.60 1006.45 1006.16 1005.92 1005.57 1005.04
1019.01 1019.01 1018.89 1018.72 1018.57 1018.45 1018.24 1017.97 1017.68 1017.36 1017.09 1016.72 1016.33 1015.92 1015.57 1015.01 1014.57 1014.12 1013.60 1013.16 1012.60 1012.01 1011.72 1011.24 1010.77 1010.48 1010.28 1010.04 1009.57 1008.89 1008.45 1008.04 1007.60 1007.36 1006.84 1006.33 1006.01 1005.45 1005.16 1004.89 1004.57 1004.28
1018.80 1018.80 1018.68 1018.57 1018.48 1018.24 1018.12 1017.84 1017.57 1017.28 1016.92 1016.53 1016.12 1015.53 1015.28 1014.80 1014.33 1013.89 1013.45 1012.89 1012.45 1011.84 1011.57 1011.21 1010.65 1010.28 1010.01 1009.65 1009.09 1008.45 1007.89 1007.53 1007.01 1006.65 1006.21 1005.65 1005.36 1004.77 1004.60 1004.41 1004.12 1003.65
1018.65 1018.60 1018.53 1018.48 1018.36 1018.16 1018.01 1017.80 1017.53 1017.21 1016.89 1016.45 1015.89 1015.36 1014.97 1014.72 1014.28 1013.65 1013.21 1012.89 1012.24 1011.68 1011.45 1010.97 1010.45 1010.01 1009.57 1009.21 1008.65 1008.09 1007.48 1007.04 1006.65 1006.09 1005.53 1005.04 1004.68 1004.28 1004.12 1003.92 1003.60 1002.72
1018.48 1018.48 1018.48 1018.41 1018.24 1018.09 1017.97 1017.77 1017.48 1017.12 1016.72 1016.33 1015.80 1015.41 1014.92 1014.36 1014.09 1013.77 1013.21 1012.60 1012.12 1011.53 1011.04 1010.68 1010.24 1009.68 1009.16 1008.77 1008.24 1007.72 1007.16 1006.68 1006.28 1005.92 1005.36 1004.68 1004.09 1003.53 1003.24 1003.04 1002.65 1002.16
1018.45 1018.45 1018.41 1018.24 1018.12 1017.97 1017.77 1017.53 1017.21 1016.84 1016.45 1016.09 1015.68 1015.16 1014.80 1014.45 1013.92 1013.45 1012.97 1012.48 1011.97 1011.41 1010.89 1010.36 1009.92 1009.41 1008.77 1008.21 1007.72 1007.24 1006.77 1006.21 1005.72 1005.36 1004.92 1004.53 1004.01 1003.45 1002.89 1002.41 1001.80 1001.36
1018.41 1018.33 1018.16 1018.04 1018.01 1017.84 1017.57 1017.24 1016.92 1016.60 1016.24 1015.92 1015.72 1015.24 1014.72 1014.21 1013.68 1013.33 1012.97 1012.16 1011.72 1011.21 1010.65 1010.04 1009.45 1008.89 1008.28 1007.60 1007.12 1006.68 1006.21 1005.65 1005.12 1004.68 1004.28 1004.01 1003.60 1003.09 1002.53 1002.09 1001.77 1001.45
1018.21 1018.12 1018.04 1017.97 1017.72 1017.48 1017.16 1016.80 1016.53 1016.28 1016.12 1015.80 1015.48 1015.12 1014.57 1014.01 1013.65 1013.09 1012.45 1012.04 1011.24 1010.77 1010.28 1009.65 1008.80 1008.24 1007.65 1007.04 1006.53 1006.01 1005.53 1005.01 1004.48 1004.09 1003.72 1003.41 1002.89 1002.53 1002.09 1001.77 1001.48 1001.24
1018.09 1018.01 1018.01 1017.84 1017.65 1017.33 1017.01 1016.77 1016.53 1016.21 1015.97 1015.65 1015.33 1014.97 1014.57 1014.04 1013.33 1012.65 1011.92 1011.48 1010.92 1010.41 1009.60 1009.04 1008.28 1007.53 1006.97 1006.41 1005.80 1005.24 1004.80 1004.28 1003.89 1003.53 1003.16 1002.77 1002.45 1002.04 1001.68 1001.24 1000.80 1000.48
1018.04 1018.04 1017.92 1017.68 1017.41 1017.16 1016.89 1016.65 1016.41 1016.12 1015.80 1015.53 1015.21 1014.80 1014.24 1013.68 1013.16 1012.57 1011.68 1010.80 1010.16 1009.68 1009.04 1008.36 1007.68 1006.92 1006.24 1005.68 1005.04 1004.41 1004.04 1003.53 1003.12 1002.80 1002.53 1002.09 1001.65 1001.16 1000.72 1000.36 1000.09 999.80
1018.09 1018.01 1017.84 1017.65 1017.41 1017.16 1016.89 1016.60 1016.28 1015.92 1015.60 1015.24 1014.84 1014.45 1013.92 1013.24 1012.53 1011.80 1011.24 1010.57 1009.72 1009.09 1008.57 1007.84 1007.04 1006.24 1005.53 1004.84 1004.16 1003.57 1003.09 1002.60 1002.21 1001.89 1001.65 1001.24 1000.84 1000.28 999.72 999.45 999.12 998.84
1018.12 1018.04 1017.92 1017.68 1017.36 1017.09 1016.77 1016.48 1016.09 1015.77 1015.45 1015.01 1014.48 1013.92 1013.36 1012.77 1012.09 1011.33 1010.72 1010.04 1009.41 1008.68 1007.89 1007.16 1006.36 1005.57 1004.80 1004.09 1003.33 1002.68 1002.21 1001.72 1001.28 1000.84 1000.57 1000.28 1000.09 999.84 999.48 998.89 998.33 997.97
1018.21 1018.12 1017.92 1017.57 1017.24 1016.89 1016.60 1016.33 1016.01 1015.60 1015.16 1014.60 1014.04 1013.41 1012.72 1012.16 1011.57 1010.92 1010.33 1009.84 1009.24 1008.53 1007.84 1006.92 1005.92 1005.04 1004.16 1003.36 1002.65 1002.01 1001.48 1001.01 1000.48 1000.09 999.72 999.45 999.28 999.12 998.84 998.60 998.16 997.65
1018.21 1018.01 1017.72 1017.36 1017.04 1016.80 1016.48 1016.12 1015.77 1015.36 1014.89 1014.24 1013.65 1013.01 1012.36 1011.84 1011.36 1010.80 1010.24 1009.77 1009.21 1008.45 1007.60 1006.68 1005.65 1004.57 1003.72 1002.77 1001.97 1001.33 1000.72 1000.24 999.77 999.41 999.09 998.77 998.57 998.36 998.24 998.01 997.68 997.41
1018.01 1017.77 1017.48 1017.21 1016.97 1016.68 1016.33 1015.92 1015.57 1015.09 1014.65 1014.09 1013.28 1012.60 1012.21 1011.60 1011.16 1010.68 1010.16 1009.72 1009.09 1008.28 1007.28 1006.24 1005.21 1004.09 1003.12 1002.12 1001.28 1000.57 999.89 999.28 998.77 998.53 998.28 997.97 997.72 997.68 997.65 997.48 997.21 996.84
1017.80 1017.53 1017.33 1017.16 1016.89 1016.57 1016.12 1015.84 1015.48 1014.84 1014.24 1013.68 1013.28 1012.77 1012.21 1011.68 1011.12 1010.45 1009.80 1009.41 1008.77 1007.92 1007.01 1005.80 1004.57 1003.45 1002.53 1001.57 1000.68 999.89 999.21 998.48 997.92 997.72 997.53 997.28 997.04 996.84 996.84 996.80 996.68 996.41
1017.57 1017.45 1017.36 1017.12 1016.80 1016.45 1016.16 1015.65 1015.16 1014.72 1014.16 1013.53 1013.09 1012.60 1012.16 1011.68 1011.12 1010.72 1009.89 1009.01 1008.28 1007.45 1006.48 1005.28 1003.80 1002.77 1001.97 1001.04 1000.12 999.28 998.45 997.72 997.24 996.92 996.72 996.57 996.41 996.28 996.12 996.04 996.01 995.77
1017.53 1017.48 1017.36 1017.16 1016.84 1016.48 1016.01 1015.60 1015.04 1014.45 1013.92 1013.48 1012.97 1012.41 1011.97 1011.48 1010.97 1010.33 1009.60 1008.68 1007.68 1006.84 1006.01 1004.77 1003.33 1002.24 1001.36 1000.41 999.60 998.80 997.97 997.33 996.72 996.33 996.04 995.84 995.68 995.60 995.53 995.41 995.33 995.16
1017.53 1017.48 1017.36 1017.21 1016.92 1016.48 1016.01 1015.45 1015.01 1014.41 1013.92 1013.53 1013.09 1012.28 1011.72 1011.28 1010.65 1009.80 1009.04 1008.24 1007.24 1006.24 1005.53 1004.41 1002.92 1001.80 1001.01 1000.12 999.33 998.41 997.80 997.28 996.53 995.84 995.45 995.21 995.01 994.92 994.89 994.72 994.53 994.41
1017.53 1017.48 1017.36 1017.16 1016.89 1016.45 1016.01 1015.45 1014.77 1014.21 1013.68 1013.28 1012.89 1012.36 1011.68 1011.04 1010.33 1009.48 1008.41 1007.53 1006.68 1005.72 1004.68 1003.84 1002.68 1001.53 1000.72 999.92 999.01 998.33 997.72 997.09 996.28 995.48 994.97 994.60 994.48 994.36 994.28 994.12 993.80 993.65
1017.45 1017.41 1017.28 1017.04 1016.65 1016.24 1015.80 1015.33 1014.72 1014.16 1013.57 1013.04 1012.53 1012.12 1011.45 1010.68 1009.97 1009.12 1008.04 1006.84 1005.89 1005.04 1004.16 1003.36 1002.36 1001.24 1000.48 999.72 999.01 998.24 997.53 996.84 996.16 995.45 994.72 994.28 994.01 993.84 993.80 993.60 993.21 992.89
Wind_Speed
5 4 6 6 7 7 8 9 9 9 10 9 10 12 12 12 11 12 13 11 11 12 13 13 12 11 13 13 12 13 11 14 12 11 13 15 14 14 14 14 15 16
6 5 5 6 7 7 7 8 10 10 11 9 10 10 11 12 12 13 13 14 14 14 13 12 12 12 11 11 10 11 13 11 15 10 13 16 15 15 17 15 16 16
5 5 6 7 8 10 9 9 9 10 11 12 11 10 11 11 14 12 11 13 14 15 14 12 14 13 12 12 11 12 12 14 14 11 14 14 14 13 14 14 12 15
5 5 6 8 8 9 9 9 10 9 10 10 10 12 11 12 13 13 15 15 13 14 14 13 12 12 12 11 12 12 13 13 14 12 15 13 14 14 14 14 14 15
6 6 6 7 7 8 8 9 10 10 11 10 12 11 12 13 12 13 14 11 13 13 12 14 15 12 12 12 10 13 13 14 12 12 13 14 14 12 13 11 15 15
6 6 7 7 7 8 9 10 10 11 11 13 13 10 12 12 12 14 14 15 13 15 17 15 19 15 14 14 13 13 14 15 15 14 15 16 14 13 12 14 15 17
7 6 8 7 8 8 10 10 11 11 11 12 11 12 12 11 14 14 15 16 17 16 18 18 16 20 14 16 16 17 15 15 17 16 18 17 17 18 14 11 13 15
6 6 7 7 8 9 10 10 11 11 11 11 11 12 9 13 13 14 15 15 17 15 20 19 16 19 18 17 17 18 18 15 15 17 18 18 16 17 14 14 14 18
6 7 7 8 9 9 9 10 10 12 11 12 12 12 12 12 15 14 16 17 18 20 19 19 19 19 16 18 18 18 19 18 17 18 18 17 17 17 16 15 18 17
6 7 8 8 9 9 11 11 11 11 10 12 12 13 14 13 13 17 16 17 20 17 20 20 19 19 20 17 19 19 19 19 18 18 17 18 18 16 16 16 17 16
7 7 8 9 10 10 11 11 11 11 11 12 13 13 12 14 16 13 16 18 16 20 19 20 19 19 20 20 18 18 19 19 19 18 18 18 19 18 18 15 14 13
8 9 9 10 10 11 11 11 11 11 11 11 11 14 17 14 12 16 16 19 19 18 20 22 20 20 20 20 19 18 18 18 18 18 19 19 18 18 18 16 14 15
7 8 9 9 10 10 10 10 10 11 12 13 12 13 13 15 18 17 19 17 17 20 21 20 22 20 19 19 19 19 18 19 18 18 18 17 17 16 16 17 18 18
7 8 9 9 10 10 10 11 11 11 12 12 13 15 16 18 15 17 16 16 20 19 20 20 19 19 19 18 17 17 18 18 18 18 17 18 18 17 17 16 16 17
8 7 8 9 10 9 10 11 11 12 12 13 14 15 14 14 18 19 21 22 18 18 20 18 17 17 14 14 16 17 16 17 17 18 16 16 17 17 17 16 15 16
8 8 8 9 9 10 10 11 11 12 12 13 14 14 15 17 16 16 19 18 20 21 18 17 16 13 18 28 26 19 18 17 15 16 15 15 15 16 17 16 16 15
7 7 8 9 9 9 9 10 12 11 12 12 13 14 15 15 17 20 17 17 19 18 19 17 17 16 27 27 29 31 24 19 18 16 16 15 15 16 16 16 14 13
7 7 7 8 8 9 10 10 11 11 12 13 14 16 15 14 16 16 17 17 16 18 18 18 17 24 30 30 30 30 27 20 17 15 14 13 13 14 15 15 16 15
5 6 7 7 8 9 9 10 11 11 12 14 15 14 14 16 17 18 18 17 17 19 19 19 18 25 30 31 30 30 30 25 16 16 14 14 13 15 15 15 14 14
5 5 6 7 8 9 9 10 11 12 12 12 12 14 15 15 16 18 17 17 17 18 18 19 20 25 31 31 30 30 30 26 14 15 15 15 16 15 14 15 15 15
5 6 7 8 9 9 10 10 11 12 13 11 12 14 15 15 16 17 17 17 18 18 18 19 18 30 31 33 31 31 30 27 14 11 13 13 14 13 13 15 16 16
5 6 7 8 9 10 10 10 10 12 13 13 12 13 13 13 13 13 16 17 16 16 16 18 19 30 31 31 31 29 31 18 11 10 13 12 13 14 13 13 15 16
6 7 7 8 9 10 11 11 12 13 12 11 13 13 14 13 14 14 14 15 17 16 17 17 18 25 31 32 30 30 24 14 13 9 9 12 13 12 13 14 14 15
6 6 7 8 9 10 11 11 10 11 10 10 12 14 14 14 14 14 14 14 16 17 17 17 18 25 33 30 29 29 26 17 14 8 8 10 11 12 11 13 15 23
5 5 7 7 8 10 10 12 12 12 11 11 10 11 13 12 12 13 14 13 14 16 24 23 18 22 27 26 29 30 24 15 14 10 7 8 9 10 11 13 14 16
4 5 6 7 10 10 10 10 10 10 11 11 11 10 11 12 12 13 16 15 15 15 16 16 16 16 18 28 30 30 29 19 13 12 7 10 9 8 7 11 13 12
Wind_Direction
274 278 278 281 279 278 286 292 293 292 291 293 291 296 297 296 297 294 289 287 281 278 281 281 276 269 272 270 269 271 270 270 268 264 267 268 267 269 266 263 263 258
271 271 278 281 282 278 280 285 292 294 293 287 285 288 291 293 292 294 293 292 290 283 281 277 275 272 269 270 269 269 269 264 266 266 264 259 260 256 256 259 263 272
278 279 277 280 283 287 288 289 289 292 292 292 291 289 289 293 293 290 288 290 291 291 287 278 277 274 270 268 270 269 269 269 267 262 260 258 254 253 259 263 261 261
274 273 280 282 282 288 293 294 291 288 287 290 291 292 290 291 293 293 293 291 288 285 287 284 278 276 273 271 270 270 268 265 264 264 264 262 262 264 262 262 262 261
284 287 281 280 284 289 294 292 292 292 291 288 291 291 292 293 292 292 293 293 291 289 289 292 292 285 281 275 270 273 272 272 264 259 261 263 260 257 259 257 258 256
281 280 283 285 292 299 296 293 289 293 292 293 290 290 289 288 290 293 295 296 294 293 294 295 294 293 293 286 280 270 271 273 274 267 263 260 260 250 253 251 251 252
287 289 291 294 296 295 294 293 294 291 291 289 292 287 292 291 293 294 296 297 298 296 295 296 294 293 292 286 284 281 278 276 275 271 269 268 266 264 256 248 252 257
288 289 292 297 296 296 294 294 292 293 293 294 288 290 292 294 295 298 298 298 295 293 295 295 291 290 290 286 282 281 279 278 276 271 269 268 265 262 256 255 255 256
295 297 300 299 297 296 293 294 293 294 294 291 293 297 298 295 298 297 298 298 296 296 294 293 293 288 286 284 283 282 280 279 280 280 273 268 264 260 259 258 258 258
300 302 302 298 298 298 296 296 296 294 295 295 300 303 300 298 299 300 296 297 294 291 293 290 291 288 284 282 281 280 279 277 276 275 279 279 275 262 253 252 250 252
303 303 301 300 295 288 283 286 288 292 296 297 297 296 298 306 302 296 296 294 292 292 293 291 288 287 284 281 279 277 278 276 274 273 271 270 271 274 277 274 264 257
296 295 294 293 296 297 294 293 295 302 304 305 303 303 307 298 296 298 297 298 293 292 293 291 286 283 281 280 278 277 275 273 271 269 270 269 270 271 268 262 264 269
286 297 298 294 288 289 292 296 300 304 307 307 306 301 299 303 303 300 299 291 290 292 288 289 288 281 278 277 277 275 273 272 270 269 269 270 269 267 262 260 261 262
295 296 297 294 294 299 303 306 309 311 310 308 309 309 307 302 296 296 291 291 291 289 289 284 283 283 279 275 271 270 270 268 267 267 267 269 268 264 262 261 257 253
299 300 292 294 301 304 307 310 312 312 311 311 308 306 299 295 298 297 295 294 288 289 286 283 282 278 276 273 273 270 267 266 265 262 260 265 267 261 255 250 249 252
297 295 300 304 308 313 314 315 315 315 313 310 304 299 299 296 288 290 294 292 295 296 293 289 282 280 275 275 276 274 272 269 264 259 255 257 268 275 266 249 245 248
296 299 305 309 313 314 317 319 318 316 313 309 306 305 301 298 300 300 301 303 301 301 300 296 291 283 281 281 282 281 280 276 271 266 260 260 265 270 276 277 265 251
297 302 307 312 318 319 320 319 315 315 313 312 311 309 305 303 303 303 305 304 302 300 299 297 295 294 293 289 286 285 283 279 275 270 263 257 256 262 266 267 271 274
296 307 313 319 323 321 318 317 316 315 316 316 313 310 310 311 310 309 308 308 304 302 299 296 294 294 296 294 291 288 287 283 276 271 265 261 261 263 263 266 265 264
307 318 323 325 323 320 319 320 321 318 315 310 308 314 313 310 309 308 308 309 308 304 301 297 294 293 296 298 297 293 290 290 276 269 262 255 257 258 261 265 264 264
324 331 332 328 324 322 321 319 319 316 317 316 316 316 314 314 315 313 310 308 305 302 301 298 294 295 299 301 301 298 295 293 281 266 264 262 257 246 249 257 259 261
337 338 333 328 325 324 322 317 318 320 317 318 315 311 309 308 305 301 301 303 301 301 300 298 295 299 302 303 303 302 303 300 282 259 257 258 259 261 253 254 257 259
341 336 331 326 324 322 321 321 320 318 316 316 311 310 310 309 305 303 300 300 302 303 305 299 295 300 307 308 307 307 310 308 300 262 246 250 256 260 262 258 256 255
337 331 325 323 321 319 317 314 309 307 307 312 309 311 311 309 306 303 300 299 301 304 304 302 302 304 306 307 309 313 317 313 303 273 237 243 251 248 253 257 254 255
328 324 317 314 314 312 313 312 313 313 308 307 304 303 302 302 303 303 302 302 301 303 306 306 296 296 301 308 314 316 316 312 310 293 251 242 243 251 254 255 254 252
322 314 310 311 313 311 307 306 307 308 309 309 308 304 302 304 304 304 304 307 309 308 308 300 293 296 306 316 317 316 317 318 313 309 271 261 249 242 251 260 256 247